Theta_e
305 305 305 306 306 306 307 307 305 303 301 301 301 299 300 301 301 298 295 294 292 291 289 289 289 289 288 288 289 289 289 288 287 288 289 289 289 288 288 288 289 289 289 288 287 288 288 288 288 287 289 289 288 287 288 289 289 290 290 290 291 290 290 289 286 286 289 292 291 290 291 291 289 287 288 289 290 291 292 292 292 292 293 293 294
305 305 306 307 306 306 306 305 304 303 300 298 298 296 296 297 295 294 294 288 289 289 288 287 288 288 289 290 289 290 292 295 292 293 293 292 291 293 290 290 289 285 285 285 285 285 286 285 285 284 285 286 285 284 284 286 287 288 288 289 290 289 290 288 287 286 285 288 287 289 289 288 287 289 287 287 288 289 289 290 291 291 291 292 292
304 305 306 305 304 303 301 299 300 298 296 293 293 292 291 291 292 293 290 288 286 288 287 287 288 289 290 291 292 292 292 291 290 291 290 290 289 286 286 286 285 284 286 285 286 285 286 285 285 284 285 287 286 285 283 284 285 287 288 289 288 289 289 290 288 286 285 286 288 287 287 287 287 287 288 288 288 289 288 289 289 290 290 290 290
304 305 304 301 299 298 298 296 297 296 294 292 291 290 290 290 289 290 288 288 288 287 288 288 289 290 289 288 287 285 284 284 286 286 286 285 286 286 285 285 285 285 285 285 285 285 285 286 286 285 286 287 287 284 282 282 283 284 286 287 287 287 288 288 288 287 286 285 286 286 286 286 286 287 288 288 287 287 287 288 288 288 289 289 289
301 300 299 297 296 296 295 295 296 295 293 291 291 289 289 288 288 289 288 288 288 287 286 286 286 288 286 285 285 285 284 284 285 285 284 285 285 285 284 284 283 284 283 284 284 285 285 284 284 284 285 285 284 282 282 282 282 283 284 285 286 287 287 287 287 287 286 285 285 286 286 285 286 286 285 286 286 286 287 287 287 287 287 288 289
298 297 297 296 295 294 293 293 293 292 291 290 290 288 287 288 288 287 289 288 287 287 286 286 285 283 284 284 284 284 284 284 284 284 284 283 283 283 284 284 283 283 283 283 283 283 284 283 283 283 283 283 283 283 283 283 282 282 282 283 284 285 285 285 286 286 285 285 285 284 285 284 284 285 285 285 284 284 285 286 286 286 286 286 287
296 296 295 295 294 293 292 292 291 290 289 288 287 287 287 287 288 287 286 287 287 286 286 286 285 284 283 284 284 284 283 283 283 283 283 283 283 283 283 282 282 282 282 282 283 283 283 283 282 282 282 282 282 282 282 282 282 281 282 282 282 282 283 284 284 284 284 284 284 284 283 284 284 283 285 286 285 284 283 282 283 285 286 285 285
294 294 294 293 292 291 290 289 288 288 287 286 287 286 286 286 286 285 286 287 287 287 287 286 284 285 285 285 284 284 285 284 284 283 283 283 283 282 282 283 281 282 283 283 283 282 282 282 282 282 282 282 282 282 281 281 281 281 281 281 281 281 281 282 283 283 283 283 283 282 283 283 283 284 285 284 282 282 283 283 281 282 283 285 285
292 292 292 291 289 288 286 286 286 286 286 287 286 286 286 286 285 285 285 286 286 285 286 286 286 285 284 284 284 284 285 285 284 284 283 283 282 283 283 282 282 282 281 281 282 282 281 281 282 282 282 284 285 285 286 286 282 281 281 281 281 281 281 281 282 283 283 283 282 282 282 282 281 281 281 280 280 280 283 283 282 283 283 283 285
290 289 289 288 287 286 286 286 286 286 287 287 286 286 286 285 285 285 285 285 284 284 285 284 284 284 284 284 284 284 284 284 286 289 287 283 283 282 282 282 282 281 281 280 280 281 281 281 281 283 283 283 284 285 286 286 286 284 282 281 281 281 282 282 282 282 282 281 280 281 280 280 280 280 280 281 282 282 282 282 281 282 283 283 284
289 289 288 287 286 286 286 286 286 286 286 286 285 285 285 285 285 285 284 284 284 284 284 284 283 283 283 283 283 283 283 284 289 292 291 289 283 282 282 282 281 281 281 281 281 281 281 280 280 281 281 282 280 284 285 285 285 285 286 286 285 283 282 281 281 281 280 280 281 280 280 279 280 281 280 281 281 282 282 282 282 282 281 279 277
289 288 287 286 286 286 286 286 286 285 285 285 285 284 284 284 284 284 284 283 283 283 283 283 283 282 282 282 282 283 284 289 291 291 291 290 286 282 282 281 281 281 280 280 280 280 280 280 280 280 280 281 281 280 281 283 284 285 285 285 285 285 285 283 282 281 281 280 279 280 280 280 280 281 280 281 281 281 282 282 281 280 279 279 279
288 287 286 286 286 286 286 286 285 285 285 284 284 284 284 284 283 283 283 283 282 283 282 282 282 282 282 281 281 282 283 290 291 291 291 290 288 284 281 281 281 280 280 280 279 279 279 279 279 279 280 281 280 280 280 280 283 284 284 284 284 284 284 285 285 283 282 281 281 280 280 280 280 280 281 281 283 281 281 280 281 280 280 279 280
287 286 286 286 286 285 285 285 285 284 284 283 283 283 283 283 283 283 282 282 282 282 281 281 281 281 281 281 281 282 283 288 290 289 289 288 287 284 281 281 280 280 280 279 279 278 278 277 278 278 278 278 279 279 282 283 283 283 282 282 282 282 283 284 284 284 283 282 281 280 281 282 281 282 282 283 281 280 280 280 281 280 280 280 281
286 286 285 285 285 285 285 285 284 283 283 283 283 282 282 282 282 282 282 282 282 281 281 280 280 280 280 280 281 282 284 289 289 288 288 287 286 283 280 280 279 279 279 278 277 277 278 277 277 277 277 278 279 282 283 283 282 282 281 281 281 281 281 280 280 281 282 282 282 282 282 282 282 282 283 283 283 282 282 281 281 281 282 283 283
285 285 285 284 284 284 284 284 283 283 282 282 282 282 282 282 281 281 280 280 280 280 279 280 279 279 279 280 280 280 283 288 288 287 286 285 284 279 279 278 278 278 277 277 277 277 277 276 276 276 276 277 280 284 284 283 282 281 280 281 280 279 278 281 282 283 283 283 283 282 282 282 284 283 283 283 283 283 283 283 283 282 281 279 278
285 285 285 284 284 284 284 284 283 282 282 282 282 282 281 280 280 280 280 280 280 280 279 279 278 279 279 279 279 280 282 286 287 286 285 284 281 277 276 275 275 274 276 276 276 276 276 276 276 276 277 278 282 284 284 283 281 281 280 280 278 277 277 279 282 284 284 284 284 284 284 285 285 285 285 285 283 283 281 279 278 279 278 276 277
285 285 285 284 284 284 284 283 283 282 282 282 282 281 281 280 280 280 281 280 279 279 279 278 278 279 279 278 279 279 279 283 286 286 285 283 280 277 275 274 273 273 273 275 275 275 276 278 278 277 278 279 283 284 284 283 280 280 279 277 276 276 277 280 281 281 283 282 282 283 283 283 282 283 283 283 283 283 279 277 278 279 277 277 276
285 285 284 284 283 283 283 283 283 282 282 282 281 280 280 280 279 279 280 280 279 279 279 279 278 278 278 278 279 278 278 281 285 284 284 283 279 275 274 272 273 274 274 274 274 273 274 277 278 279 280 281 283 283 283 282 280 279 278 276 276 276 278 280 279 278 277 277 277 278 277 279 279 278 279 282 282 281 280 280 280 279 277 277 277
285 284 283 283 282 282 282 282 282 282 281 280 280 280 278 277 278 278 278 279 278 278 278 278 277 277 278 278 278 278 278 278 281 284 283 283 281 275 272 274 276 275 275 273 270 271 274 274 277 280 282 282 282 283 282 283 280 279 278 276 276 277 280 278 278 277 276 276 276 276 276 277 278 278 278 278 279 279 280 280 280 279 278 277 277
283 283 282 281 281 280 280 281 280 280 280 279 279 277 278 278 278 278 277 277 278 278 278 277 277 277 277 277 276 276 276 275 278 282 282 282 282 279 274 277 277 275 273 271 271 271 273 274 275 279 281 282 282 282 282 282 281 279 278 278 279 279 279 275 275 276 275 275 275 275 276 276 276 277 277 277 278 278 278 279 280 280 278 277 277
282 281 280 280 279 279 278 278 278 278 277 277 277 276 276 277 278 277 277 278 278 277 277 277 276 276 276 275 275 275 276 277 274 279 281 281 281 281 277 277 278 276 272 269 271 273 275 276 275 279 281 281 280 281 281 281 280 279 279 280 280 279 276 275 275 274 274 274 274 274 274 274 275 275 276 276 277 277 278 278 279 279 280 280 279
280 280 279 278 277 277 277 276 276 276 276 277 277 276 276 276 276 277 277 277 277 277 276 276 275 275 275 275 275 274 274 274 278 276 279 280 280 280 280 279 279 277 273 270 271 273 276 277 278 279 280 279 279 280 280 280 279 278 279 279 278 277 276 273 274 274 274 274 273 272 273 273 274 275 275 275 276 277 277 277 277 278 279 280 281
279 278 277 276 276 275 275 275 275 276 276 277 277 276 276 276 276 276 277 277 277 276 276 275 275 274 273 274 274 273 272 272 276 277 277 279 279 279 279 279 279 277 275 271 272 276 276 277 277 279 278 278 279 278 278 278 277 277 277 277 276 274 272 272 273 273 273 272 271 271 271 273 274 274 275 276 276 276 275 276 277 279 279 279 280
277 276 276 275 275 274 274 274 274 275 275 276 277 277 276 276 275 275 276 276 276 276 275 274 274 273 272 272 271 270 270 271 273 276 277 277 278 278 278 278 278 278 274 272 275 276 277 278 277 277 277 277 276 276 275 275 276 275 275 275 272 270 271 272 272 271 270 270 270 270 270 272 273 275 276 275 275 275 275 276 277 278 279 280 280
276 275 275 275 274 274 274 274 274 274 274 275 277 277 277 276 276 274 275 275 275 275 274 273 272 271 271 270 269 268 269 272 273 275 277 277 276 277 277 277 277 277 275 274 277 276 276 275 276 275 274 274 272 269 270 270 273 273 273 271 269 270 271 271 270 269 269 268 268 268 269 271 273 274 274 273 273 272 273 273 274 275 277 277 277
275 275 275 274 273 274 274 274 273 273 273 273 274 274 275 276 275 274 274 273 273 273 272 271 270 270 270 271 270 268 268 271 273 274 276 275 275 275 275 274 276 275 273 274 273 270 272 272 272 272 272 272 272 271 270 270 268 268 268 268 268 270 270 270 269 268 268 267 267 268 269 271 273 273 271 271 271 271 272 272 272 273 275 276 275
275 274 274 273 273 274 274 273 273 273 273 274 274 273 273 274 274 274 273 273 272 271 270 270 270 270 270 270 269 268 269 271 273 274 274 274 274 274 274 273 270 270 270 271 268 267 265 270 268 267 266 265 265 263 264 265 266 266 264 265 267 269 270 270 270 269 268 267 267 268 269 270 269 269 269 269 270 270 271 271 271 271 273 275 274
273 273 272 272 272 273 273 273 273 273 272 272 270 271 272 272 272 270 268 268 270 272 271 271 270 269 270 270 270 269 270 271 273 276 275 276 275 273 272 272 271 271 274 274 265 263 263 262 263 263 263 263 263 262 262 263 264 265 264 264 265 266 267 267 266 266 266 266 266 266 267 267 267 267 268 267 268 268 270 270 270 270 272 274 273
272 272 272 272 272 272 271 271 271 271 271 270 270 269 272 273 272 271 269 272 274 275 274 268 269 268 268 267 269 270 270 272 277 277 277 276 276 277 276 275 275 273 274 273 267 258 260 259 261 261 261 261 261 262 262 262 262 262 262 265 265 265 265 265 266 265 265 265 266 266 266 266 265 266 266 266 266 267 269 270 268 270 270 271 272
272 271 271 271 271 271 271 270 269 269 270 270 271 271 271 273 277 277 276 276 277 277 277 276 275 273 270 267 270 275 276 277 277 276 276 276 276 275 275 275 274 274 273 265 259 259 259 259 260 260 261 259 260 261 262 261 261 261 261 262 263 264 265 264 265 265 265 265 265 265 265 265 265 265 265 265 265 266 267 268 268 269 269 270 272
273 272 272 271 271 270 270 270 269 269 269 270 271 271 271 271 272 276 278 278 279 278 278 277 277 276 275 273 270 272 276 276 276 276 275 275 275 274 274 274 273 273 272 270 259 260 259 258 259 259 259 258 260 260 260 259 259 260 260 261 261 262 263 263 264 264 264 264 264 264 264 264 264 264 264 265 265 265 266 266 266 267 268 270 272
273 272 271 271 270 270 270 270 269 269 269 269 270 271 271 271 270 271 275 279 278 278 278 277 277 277 277 276 276 274 275 275 275 275 275 275 274 273 273 273 272 271 270 260 256 259 259 259 258 258 258 257 257 258 258 258 258 259 260 260 260 261 262 263 264 263 264 264 264 263 263 263 263 263 264 264 264 264 265 265 266 267 268 269 271
272 272 271 271 270 270 270 270 269 269 269 270 270 271 271 271 271 272 272 271 271 274 276 277 277 277 277 277 276 275 275 275 275 274 274 274 273 273 272 269 272 271 266 257 257 256 257 256 258 258 256 257 257 258 258 257 258 259 259 259 260 261 262 262 262 262 263 264 263 263 263 262 263 262 261 262 263 264 264 265 265 265 266 268 270
270 269 269 269 271 270 270 270 269 269 268 268 269 269 269 268 269 271 271 269 268 268 267 270 274 276 275 274 275 275 275 275 274 274 274 273 272 271 269 261 260 257 257 257 258 256 257 257 256 257 256 255 256 257 257 256 257 257 258 259 260 260 260 260 261 262 263 263 262 262 262 262 261 261 261 261 261 262 263 264 265 265 266 268 270
269 269 269 269 269 270 270 269 269 268 268 268 268 268 268 267 267 269 269 268 268 267 266 266 265 272 274 273 274 274 274 274 274 273 272 272 271 270 258 255 254 255 256 255 256 256 257 256 256 255 255 255 255 255 255 256 257 257 257 258 259 259 259 259 261 262 262 262 262 262 262 260 260 260 260 260 261 262 263 263 264 265 267 269 270
268 268 269 269 269 269 268 267 267 267 268 265 265 266 266 266 266 267 267 267 266 266 266 264 262 263 269 266 268 273 274 273 273 272 271 271 270 263 256 255 255 254 256 255 255 256 255 254 255 254 254 254 254 254 254 255 255 256 258 258 258 258 258 259 261 261 261 261 261 261 260 260 259 259 259 259 260 261 262 263 264 265 267 269 270
267 267 267 267 266 266 266 266 265 266 265 265 265 265 266 266 266 266 266 266 266 265 264 263 265 265 264 264 267 264 265 272 272 269 268 268 261 254 253 255 255 255 255 254 255 255 255 254 252 253 253 253 253 253 253 254 254 255 256 256 257 258 260 260 260 260 260 261 261 261 260 259 259 259 259 259 259 260 261 263 263 264 266 268 269
264 266 267 267 267 265 265 264 264 265 264 264 264 265 265 265 265 265 265 265 265 265 264 264 264 263 263 263 260 262 263 260 260 258 256 253 252 253 252 253 254 254 255 255 255 256 254 254 254 254 253 252 253 253 253 253 254 254 255 255 256 257 257 257 257 258 259 260 260 260 260 259 259 259 259 259 259 260 261 262 263 264 265 266 268
264 263 265 267 265 265 264 264 264 264 264 264 264 265 265 266 266 265 265 265 265 265 263 262 262 263 262 260 260 259 260 260 259 256 255 254 254 254 253 254 253 254 254 254 253 253 253 253 252 252 253 251 252 252 253 253 253 255 255 256 256 256 256 256 256 257 257 258 259 260 259 259 259 259 258 258 259 260 260 261 262 264 265 266 267
262 263 264 266 265 264 264 264 264 264 265 265 265 265 265 266 266 265 265 264 265 264 263 263 263 262 261 261 265 264 261 260 258 256 257 257 255 254 254 253 255 254 254 254 253 252 252 252 252 251 252 252 252 252 252 253 253 254 254 255 255 256 256 256 256 256 257 257 258 259 259 259 259 258 258 258 260 260 260 261 262 263 264 266 267
263 262 263 264 265 264 263 263 264 264 265 264 265 265 265 265 265 265 264 264 263 263 263 262 262 260 261 265 266 267 264 260 258 257 257 257 256 256 256 255 255 254 254 254 252 253 252 251 253 252 252 252 252 252 252 252 252 252 253 253 254 255 255 255 255 255 256 256 257 258 259 260 260 259 259 260 258 258 259 260 261 262 263 265 266
262 262 263 263 263 263 263 263 264 263 264 264 264 265 265 264 264 264 263 263 263 263 263 262 261 259 260 265 265 267 263 260 260 259 257 256 255 255 255 256 255 254 253 253 253 251 252 252 253 253 252 253 252 252 253 253 252 252 252 253 254 254 254 255 255 255 255 256 256 258 259 259 259 258 257 258 258 258 258 259 260 261 262 264 265
261 262 262 263 263 263 263 263 263 263 263 264 264 264 263 263 263 263 263 263 263 262 262 262 261 260 260 262 264 263 259 258 259 259 257 256 256 256 255 253 254 252 251 251 251 250 251 251 252 253 252 252 252 250 252 252 252 251 252 252 253 255 254 254 254 254 254 255 256 257 259 259 259 258 257 258 257 257 258 259 260 260 261 262 264
261 261 262 262 262 262 262 263 262 262 263 263 263 263 263 262 263 263 263 262 262 262 262 261 261 260 260 258 258 259 260 259 257 257 257 257 256 256 254 253 252 253 252 251 251 249 249 251 251 250 252 253 252 252 252 252 251 252 252 252 252 253 253 253 253 254 254 255 256 257 258 258 258 258 257 257 258 257 257 258 259 260 261 261 262
261 261 261 261 261 262 262 262 262 262 262 262 263 262 262 262 262 262 262 262 262 261 261 261 260 260 260 260 259 259 258 257 257 257 256 255 255 255 253 253 252 251 252 252 251 249 251 251 251 251 252 252 252 252 252 251 252 252 252 252 253 253 254 254 254 254 254 254 254 255 257 258 259 259 259 258 257 257 257 258 259 259 260 260 261
260 260 260 261 261 261 262 262 262 262 262 262 263 262 262 262 262 262 262 261 261 261 261 261 260 260 260 260 259 259 258 258 257 257 256 256 255 254 253 251 253 252 253 253 250 251 250 251 251 251 251 251 251 252 252 252 250 252 251 252 252 253 253 253 253 253 253 254 255 256 257 259 259 258 257 257 256 256 257 257 258 258 259 260 261
259 259 260 260 260 261 261 262 262 262 262 262 262 262 262 262 261 261 261 261 261 261 261 260 260 260 259 259 259 258 258 258 258 257 257 256 254 254 253 252 252 253 252 252 250 250 250 249 250 250 251 251 251 252 252 252 251 251 251 251 252 252 253 254 253 253 254 255 256 258 258 259 259 258 257 256 255 255 255 255 257 257 258 260 260
258 259 259 260 260 261 261 262 261 261 261 262 261 261 261 261 261 261 260 260 260 261 261 260 260 260 259 259 258 258 258 257 257 257 256 256 255 254 253 252 253 253 252 253 252 250 250 250 250 250 250 250 250 251 251 251 252 251 251 251 252 254 255 256 255 255 257 258 258 259 259 259 258 257 256 255 254 254 254 255 255 257 258 259 259
258 259 259 259 260 260 261 262 262 262 262 262 261 261 261 261 260 260 260 260 260 259 260 260 259 259 259 258 257 257 257 256 256 257 256 256 255 254 253 253 252 252 252 252 252 251 250 248 248 248 249 249 250 250 250 251 251 251 250 251 254 255 256 256 257 257 258 258 259 259 259 258 257 256 254 253 252 252 253 254 256 257 257 257 257
259 259 259 259 259 260 261 261 261 262 262 261 261 261 261 261 260 260 260 260 259 259 259 259 259 258 258 258 257 257 257 257 257 256 256 255 255 254 253 253 253 253 252 252 252 252 250 249 248 249 249 250 250 250 250 250 250 250 253 255 255 256 256 257 257 258 259 259 259 259 258 257 256 255 254 253 252 251 254 255 256 256 255 256 256
Wind_Speed
7 7 7 7 9 9 8 8 8 7 7 6 7 6 6 7 6 6 6 5 6 6 6 6 5 6 6 5 5 5 5 4 4 5 6 6 5 4 4 5 5 3 3 3 3 3 2 1 1 2 1 1 2 2 3 3 3 2 3 3 4 3 5 7 11 15 13 3 7 11 9 10 11 4 9 12 13 10 11 10 11 12 12 11 12
7 8 7 8 9 9 8 6 7 7 7 6 7 7 6 7 7 6 7 4 5 6 6 6 5 6 6 5 5 4 4 5 4 5 6 5 4 4 4 5 4 3 3 2 1 1 2 2 3 3 3 3 4 4 4 3 3 3 2 2 4 5 3 8 9 10 17 14 8 7 8 4 12 12 9 11 13 15 16 13 10 10 12 11 12
7 7 8 8 8 7 7 7 7 7 8 6 7 7 6 6 6 8 7 5 3 5 6 6 6 6 6 5 6 6 6 6 5 6 6 6 6 4 4 4 4 3 2 2 3 3 4 4 4 4 4 4 4 4 3 3 3 3 4 3 4 4 5 5 9 11 14 16 13 10 10 9 8 12 11 10 10 11 14 14 13 12 12 13 13
7 7 7 7 7 7 7 7 8 7 8 6 8 6 6 6 5 7 7 5 6 4 5 6 6 7 7 6 6 6 6 6 6 5 5 5 4 4 3 3 3 3 3 3 4 4 4 4 4 4 4 4 3 3 3 2 3 2 3 3 3 5 4 5 5 9 12 15 15 13 11 12 11 8 9 9 8 9 11 13 13 14 14 14 12
7 7 7 8 6 7 7 7 8 7 7 6 8 7 6 6 5 8 7 6 6 6 5 5 7 7 7 7 7 6 6 5 6 4 4 3 3 4 3 3 3 3 3 2 2 2 3 2 3 3 3 4 3 3 3 4 3 3 3 3 3 4 5 5 6 7 10 13 14 12 11 10 9 10 5 10 13 12 12 14 13 13 13 12 12
6 7 7 8 7 8 7 6 8 8 8 7 7 7 7 6 7 5 7 8 6 5 7 5 7 7 6 6 6 6 5 6 6 5 4 3 4 4 3 4 3 3 3 2 2 2 2 2 2 2 3 4 4 4 4 5 4 4 4 4 4 4 5 5 6 7 9 10 11 15 13 13 14 12 10 8 10 13 13 14 14 13 13 15 12
7 7 7 8 7 7 7 7 7 7 7 7 6 6 6 6 7 7 5 7 7 6 5 6 4 7 7 7 7 7 7 6 5 4 4 4 4 4 4 3 2 2 1 1 1 1 1 1 2 3 3 3 3 4 4 4 4 5 5 4 4 4 5 6 6 7 8 10 10 10 13 11 9 15 12 9 11 10 13 13 13 12 11 13 17
7 7 7 7 7 7 6 6 6 7 6 6 6 6 6 6 6 6 6 7 7 6 7 7 6 6 6 7 6 6 6 6 5 5 4 4 4 4 3 3 2 2 1 1 1 2 2 2 2 2 2 3 3 3 3 4 3 4 5 4 5 5 6 6 7 7 9 9 8 11 8 11 11 8 10 10 11 11 8 10 14 16 13 12 14
7 8 7 7 7 6 6 5 6 7 7 7 7 7 6 6 6 6 6 6 5 6 5 7 9 8 6 7 7 7 7 5 4 4 4 3 3 4 4 4 3 3 3 3 3 3 3 3 2 3 3 5 5 6 6 7 4 4 5 4 6 6 6 6 6 7 8 8 9 7 9 10 8 9 12 11 10 14 14 11 13 14 14 13 15
8 7 7 7 6 6 6 6 6 7 7 8 7 7 7 7 7 7 6 6 6 6 6 6 7 8 8 7 7 7 6 3 4 6 5 4 4 4 4 3 3 4 4 3 3 3 3 3 3 6 7 7 7 7 8 8 8 5 4 4 5 5 6 7 7 6 8 10 8 9 11 11 11 10 10 11 11 12 13 13 14 13 13 13 12
7 8 8 7 7 7 7 6 6 7 6 6 6 7 7 7 7 7 7 6 7 6 7 8 7 7 8 8 8 5 3 3 6 6 7 7 4 4 5 4 4 4 4 5 5 5 4 3 3 4 5 5 4 7 8 8 9 11 11 10 9 7 7 9 8 6 7 8 9 9 8 12 13 10 10 12 11 11 13 12 13 12 13 15 19
8 7 8 8 8 9 8 8 8 7 7 8 7 6 6 6 7 7 7 7 6 6 8 8 8 7 8 7 7 5 4 6 7 7 8 9 7 5 5 4 4 4 4 4 4 4 5 6 5 4 4 5 5 4 5 8 9 11 11 12 12 12 11 8 9 9 9 10 11 9 9 9 11 11 11 10 13 14 13 13 13 14 14 15 16
8 7 7 8 9 8 8 9 9 8 8 8 8 7 7 6 7 7 7 6 7 8 7 8 8 7 8 8 7 5 4 7 8 8 10 11 10 6 5 4 5 4 4 4 4 4 4 4 4 5 4 7 5 5 5 5 7 11 11 12 11 11 12 13 13 10 9 9 10 12 9 10 13 11 11 14 13 14 14 13 13 12 11 14 13
7 8 8 8 8 8 8 9 9 8 8 8 8 8 7 7 5 5 6 6 7 8 7 8 7 7 7 8 7 5 5 7 10 11 11 11 10 7 5 5 5 5 4 4 4 3 3 3 4 4 5 5 5 6 6 7 7 6 6 6 5 7 10 12 13 14 11 8 9 11 11 9 12 12 13 13 14 13 13 14 13 14 15 17 20
7 8 9 7 7 8 8 9 9 8 8 8 8 7 7 6 6 6 6 7 8 9 9 8 7 7 6 6 7 6 5 9 10 11 12 12 11 7 5 5 5 5 4 3 3 2 3 3 4 4 4 5 5 8 9 8 7 7 7 7 6 5 5 5 5 5 5 6 8 10 12 11 11 13 13 13 14 13 12 14 15 15 17 16 17
8 8 9 9 9 9 10 10 9 9 9 8 8 8 7 8 8 6 6 5 5 6 5 7 8 7 6 7 8 7 4 9 10 12 13 12 10 5 5 5 5 4 4 2 2 2 2 3 3 3 3 4 7 14 12 9 7 9 9 8 6 4 4 6 10 10 10 9 8 9 10 13 18 16 16 15 13 12 12 13 12 12 12 14 15
10 10 10 10 10 9 9 11 10 10 9 9 9 9 9 7 6 5 8 6 7 6 6 5 6 7 7 6 8 6 5 7 10 12 12 12 7 5 4 4 4 3 3 1 1 2 2 2 2 3 4 5 9 14 15 13 7 9 10 10 10 8 7 5 8 12 14 17 19 20 21 21 21 22 23 24 18 16 12 12 12 12 12 14 15
10 10 11 10 10 10 9 10 11 10 10 10 10 8 6 5 6 5 8 9 7 6 7 7 5 6 7 6 6 7 5 5 10 11 12 12 8 5 4 5 4 2 1 3 1 1 2 4 4 3 4 4 11 14 15 11 7 8 9 12 13 12 11 10 9 9 13 14 15 16 17 18 19 21 20 20 20 15 10 12 12 12 12 12 14
11 12 11 10 9 9 8 9 10 10 10 9 9 9 8 8 5 5 5 6 7 6 6 8 7 6 5 6 6 7 5 5 8 10 11 11 7 4 5 5 3 2 1 1 2 1 2 3 4 4 4 7 12 12 14 10 6 7 8 10 11 12 11 12 12 15 15 15 14 14 13 14 12 10 10 19 20 15 9 11 11 10 13 13 14
9 7 8 8 8 8 7 9 9 9 10 8 7 7 6 7 7 7 5 6 7 6 6 7 8 6 5 5 5 5 5 4 5 10 9 10 10 6 4 4 3 1 1 2 2 3 2 3 3 6 10 11 11 12 12 13 7 5 6 7 9 11 11 12 12 12 12 12 13 12 13 12 11 10 10 10 12 12 11 9 10 11 12 13 13
8 8 8 8 7 7 6 7 10 7 7 9 8 7 6 7 7 7 8 6 7 7 7 7 7 6 5 4 5 4 4 5 4 8 8 9 9 8 2 1 1 1 3 3 2 2 2 2 2 7 12 12 11 12 12 12 10 5 6 6 8 13 15 10 13 17 11 11 12 11 10 10 10 10 9 10 10 10 11 12 9 10 11 12 12
8 8 8 8 7 7 7 6 6 8 7 8 9 7 5 6 6 7 7 8 9 8 7 6 6 6 4 4 4 4 4 4 3 7 8 8 7 6 2 1 2 3 3 2 1 2 1 2 2 8 12 12 11 11 10 9 9 4 6 13 15 17 11 9 9 10 9 10 10 11 10 10 11 11 13 12 11 11 11 11 11 10 10 9 11
8 8 8 8 7 7 7 8 8 7 8 7 9 9 7 7 6 6 8 8 8 9 7 7 7 6 6 4 3 3 3 2 6 4 7 6 4 2 1 2 2 1 2 2 1 1 1 2 4 9 10 10 10 10 8 9 6 7 12 12 13 16 12 7 9 9 9 9 11 11 11 10 11 11 11 12 13 14 13 13 11 12 11 12 11
8 8 8 8 7 7 7 7 6 6 7 8 8 9 8 7 7 6 7 8 8 8 6 6 6 6 6 5 3 2 1 1 4 6 4 3 1 1 1 1 1 1 1 2 1 1 2 3 4 9 8 8 8 8 8 8 7 11 12 13 14 12 6 7 7 8 9 9 9 10 9 10 9 11 10 12 12 15 15 15 14 14 13 13 13
9 9 8 8 7 7 6 6 6 6 6 8 9 8 8 8 8 5 6 6 7 8 7 6 6 6 6 5 4 2 1 2 2 2 3 2 3 2 2 2 1 1 0 2 1 1 5 7 8 7 7 8 8 7 6 8 11 10 12 13 11 5 6 6 7 7 8 9 10 9 10 9 10 10 11 12 15 13 14 12 13 12 12 11 12
9 9 8 7 8 8 9 6 5 5 6 5 6 7 10 9 8 8 6 6 6 7 8 6 6 6 6 4 4 3 2 2 1 1 3 3 4 3 3 2 1 2 2 2 5 7 7 7 7 7 6 6 3 2 2 4 9 11 12 11 5 6 6 7 7 8 8 8 9 10 9 11 11 10 12 12 11 12 12 15 15 15 13 14 14
10 9 9 8 7 7 9 8 7 6 5 5 4 5 5 6 7 8 7 7 7 6 7 7 7 6 6 6 4 3 3 2 2 3 3 3 3 3 3 1 1 2 2 2 4 4 4 4 4 6 4 7 6 7 6 6 5 5 4 5 5 5 6 6 7 8 8 9 11 10 11 10 11 10 9 11 11 10 10 13 15 14 14 14 15
10 9 9 7 7 7 7 8 9 7 6 6 7 6 5 5 8 9 10 10 10 8 8 8 9 9 8 7 5 4 3 3 4 4 4 4 4 3 3 1 0 0 2 1 4 3 2 4 3 2 1 2 3 2 3 3 4 4 4 5 5 5 7 9 9 6 7 8 9 10 10 10 10 10 10 10 10 10 11 12 12 17 15 13 12
7 7 7 7 7 6 6 7 7 7 6 4 2 1 5 6 6 2 1 1 2 9 10 8 6 5 7 9 9 6 4 5 5 6 5 6 5 4 2 1 0 0 2 4 5 3 1 2 1 3 4 4 4 4 4 4 4 5 4 4 4 4 4 5 6 6 7 7 8 9 10 10 10 11 12 11 10 9 11 12 12 12 13 11 12
8 8 7 7 7 7 6 6 5 6 6 6 6 3 2 4 3 4 3 3 5 3 5 5 6 6 7 5 5 7 7 6 8 9 7 6 4 3 2 1 2 1 2 7 6 4 3 3 3 3 3 4 4 4 3 4 4 5 5 6 6 4 5 5 5 6 7 7 8 8 9 9 10 9 10 12 13 11 11 13 14 15 14 14 13
7 7 7 8 8 8 7 7 6 6 6 6 6 7 6 3 5 5 5 4 6 9 8 8 12 10 8 6 6 8 8 10 10 8 7 5 4 3 2 2 3 3 3 5 3 3 3 3 2 2 2 3 3 3 3 3 4 4 4 4 4 5 7 6 5 7 7 7 7 8 8 9 9 9 10 12 13 14 13 11 11 12 13 14 13
10 9 8 7 8 7 6 7 7 7 6 6 7 7 7 7 4 4 6 8 9 9 9 10 11 12 11 9 7 6 9 9 9 8 7 6 4 4 4 3 4 4 4 6 3 1 1 0 1 2 1 3 3 3 3 3 3 4 4 5 5 4 6 6 8 8 7 7 7 8 8 8 9 10 10 12 13 12 12 14 13 14 14 12 11
7 7 7 7 7 7 7 7 8 8 9 9 8 8 9 9 9 7 5 9 10 9 10 10 12 12 12 13 11 7 8 9 9 8 7 6 5 5 5 5 5 5 6 4 4 1 0 0 0 1 1 1 3 3 3 3 3 4 4 5 6 6 5 6 8 7 7 8 8 8 9 9 9 10 10 11 12 13 12 13 14 12 12 13 13
6 6 8 9 9 8 9 8 9 9 8 8 9 9 9 8 9 10 10 7 5 5 8 10 11 13 13 13 12 12 10 9 9 9 8 6 6 6 6 4 6 5 5 3 2 1 1 1 1 1 1 2 3 3 3 3 3 4 4 5 5 6 6 6 6 7 6 7 7 8 8 8 9 10 11 10 9 10 11 12 12 12 13 12 13
4 5 8 7 7 8 8 7 8 8 8 8 9 9 8 7 8 10 11 12 11 10 8 7 9 12 10 9 11 11 10 10 10 9 8 8 7 8 7 3 1 2 2 0 1 2 2 2 2 2 1 3 4 2 3 4 4 4 5 6 6 6 6 6 7 7 7 7 8 7 8 9 9 9 10 11 12 12 11 11 12 11 12 14 14
6 6 6 8 7 6 7 7 7 7 8 8 7 7 7 8 9 8 7 7 7 8 6 6 4 5 11 10 11 10 11 11 10 9 9 8 8 8 4 2 2 1 2 2 3 4 2 3 2 3 3 3 4 3 4 3 4 4 4 5 6 6 7 7 7 7 7 7 8 8 9 8 8 9 9 9 11 12 12 12 12 13 13 13 12
6 6 6 6 6 5 5 5 6 6 5 5 6 6 6 6 5 6 6 7 7 6 7 7 5 1 3 1 4 9 11 11 10 9 7 7 7 5 4 5 6 3 4 4 3 3 3 4 3 4 4 4 4 4 4 4 5 5 5 5 5 7 6 6 7 8 8 8 7 7 7 8 8 9 9 11 11 10 11 11 12 13 13 17 18
5 5 5 3 4 4 5 6 5 5 5 5 5 6 7 7 7 7 8 8 8 8 8 9 7 9 9 8 6 4 3 10 11 6 5 5 5 3 3 4 4 5 5 4 4 4 6 5 5 5 4 5 4 4 4 5 4 5 5 4 5 6 11 10 10 8 8 8 8 7 7 7 8 8 9 9 11 11 12 12 12 13 13 15 13
4 3 3 4 4 5 4 4 5 6 6 6 6 7 8 8 8 7 8 7 8 8 8 8 9 9 8 7 6 5 5 4 7 7 5 3 3 4 4 4 4 6 5 6 5 4 6 6 6 4 4 4 4 4 4 5 4 5 5 5 6 6 7 6 7 7 7 7 8 7 7 7 7 8 8 9 10 10 11 12 13 13 13 13 12
5 5 5 6 5 5 5 6 5 6 7 7 7 7 6 8 9 9 8 8 9 9 9 9 10 9 7 7 7 7 8 8 7 7 6 6 4 5 6 6 6 6 6 6 7 6 6 7 6 5 6 4 4 5 4 4 4 4 4 5 5 7 7 6 6 7 7 7 8 8 8 8 8 8 8 7 9 9 11 12 12 13 13 12 13
5 4 4 5 5 5 5 6 7 8 7 7 6 7 9 8 7 6 7 8 8 8 9 9 8 7 7 8 10 10 8 7 7 6 7 6 6 6 6 6 6 6 6 6 7 6 6 6 6 5 5 5 4 4 4 3 4 5 5 5 5 6 7 7 6 6 7 7 8 8 8 8 7 8 9 8 10 10 10 11 11 12 13 13 13
6 6 6 6 6 7 7 8 8 7 6 6 7 8 7 7 7 7 8 8 7 7 8 9 8 6 7 13 13 15 8 5 5 6 5 5 5 6 6 6 6 6 7 7 7 6 6 5 6 5 6 5 4 4 3 4 5 5 5 5 6 6 7 7 6 6 7 7 8 9 8 8 8 8 9 10 9 9 10 10 11 11 11 12 12
5 6 6 6 7 8 8 7 6 7 8 8 9 7 7 7 7 7 7 7 8 7 8 10 9 7 7 10 12 13 7 6 5 6 6 6 6 6 6 6 7 6 6 6 6 6 6 5 6 6 5 6 5 5 5 5 5 5 5 5 6 7 7 7 7 6 5 7 8 10 10 8 8 7 7 8 9 9 9 11 11 11 11 11 11
5 6 6 6 6 6 6 6 7 8 7 7 7 6 7 7 7 7 8 8 8 8 8 8 9 9 8 7 9 8 7 6 6 6 6 5 5 6 6 6 6 6 6 6 6 5 6 5 5 6 5 5 5 4 5 5 6 5 5 6 6 7 8 7 7 6 6 7 8 10 9 8 8 7 7 9 8 9 10 11 11 11 11 11 12
5 5 5 6 6 6 7 6 7 7 7 6 7 7 7 7 7 7 7 8 6 6 7 7 6 6 6 6 6 7 6 6 6 5 5 6 6 6 6 6 6 6 6 6 6 4 4 6 6 5 5 5 5 5 6 5 5 5 5 6 7 8 8 8 7 6 6 7 8 9 10 9 8 7 7 8 8 9 10 10 11 12 12 12 12
6 5 6 6 6 6 6 6 6 6 7 8 8 8 7 7 8 8 6 7 6 7 7 6 6 7 6 7 6 5 5 5 6 5 6 6 6 6 6 6 6 5 5 5 5 4 6 6 5 5 6 6 6 6 6 5 5 5 5 5 7 8 8 7 6 6 7 7 7 8 9 9 9 7 9 8 8 8 9 10 10 10 10 12 12
5 5 6 6 7 7 6 6 6 7 5 5 6 8 8 7 5 7 5 6 6 2 4 4 5 5 4 5 6 5 5 5 5 5 6 6 6 6 6 5 6 5 5 5 4 6 5 6 5 6 6 6 5 6 6 5 5 5 4 5 6 7 7 7 7 7 7 7 8 8 9 9 9 7 8 7 7 8 10 10 10 11 11 11 11
5 6 5 6 5 6 6 6 7 5 5 5 5 5 6 6 6 5 3 3 5 4 4 4 4 4 4 5 4 5 5 5 5 5 5 5 5 6 6 5 6 6 5 5 4 5 5 5 5 5 6 5 5 5 6 5 5 5 5 5 5 6 8 8 7 8 7 8 9 9 9 9 8 7 6 7 7 7 9 10 10 9 10 10 11
4 5 5 5 6 6 6 6 4 4 5 4 5 5 4 7 5 4 6 6 4 5 6 6 6 7 7 6 5 6 5 4 7 7 6 6 6 6 6 6 6 6 6 5 5 4 5 5 5 6 6 5 5 5 5 6 6 6 6 5 7 10 13 15 11 9 11 10 9 8 9 9 8 7 7 7 7 7 8 8 9 10 10 10 10
5 5 5 5 6 6 5 4 3 4 2 3 4 5 4 4 5 5 4 5 8 7 7 7 7 7 7 7 5 6 7 7 7 7 6 5 5 5 5 6 6 6 5 5 5 4 4 4 5 5 5 5 5 5 5 6 6 6 6 7 11 16 16 17 17 17 13 8 8 7 8 8 8 7 6 6 6 7 8 8 9 9 9 10 10
5 5 5 5 6 5 6 5 5 5 5 5 5 5 7 7 5 5 8 10 10 8 8 6 8 7 7 7 5 6 7 7 7 7 6 6 6 5 5 6 6 5 5 5 5 5 4 4 5 5 4 4 5 5 5 6 5 6 9 14 17 17 17 16 12 13 16 12 8 7 7 7 7 8 7 6 6 6 9 9 9 8 8 8 8
Wind_Direction
154 151 144 142 138 139 138 134 130 125 123 128 127 129 128 127 128 133 120 121 127 122 124 127 124 119 113 108 115 117 109 98 94 97 90 88 79 91 72 78 83 60 67 41 36 70 73 68 354 327 359 10 341 351 353 329 331 330 329 322 304 312 311 304 295 295 297 205 286 304 318 324 313 356 328 317 313 313 309 305 302 300 298 298 296
154 146 145 141 139 136 132 126 125 120 120 124 125 130 134 130 132 130 123 137 133 129 126 129 123 123 117 121 119 116 108 99 97 94 98 92 82 81 85 92 101 98 86 74 341 20 33 42 349 334 356 14 352 350 336 337 337 336 334 320 309 304 295 306 298 296 298 310 296 293 299 331 307 318 323 318 317 319 315 313 308 303 302 303 302
144 142 138 135 132 128 126 127 125 127 125 129 129 131 129 129 138 126 125 129 114 125 133 129 129 121 115 117 116 113 110 105 98 100 103 112 117 113 118 114 111 100 65 9 7 15 30 17 355 356 7 14 2 338 338 333 331 328 317 305 299 294 289 280 301 303 305 303 306 309 314 317 303 310 320 314 308 308 308 313 315 311 306 303 300
139 135 130 125 128 127 127 130 131 135 133 137 131 132 132 130 126 119 127 126 118 104 115 125 122 123 127 126 124 117 99 91 95 96 109 118 111 99 72 66 63 64 60 30 20 35 32 12 352 359 359 8 347 330 319 320 319 308 308 307 294 301 294 290 275 291 298 303 307 315 315 317 313 310 313 306 307 310 304 304 306 304 305 305 301
130 129 131 129 132 132 135 141 140 138 134 135 132 132 130 126 123 127 125 120 124 120 103 116 123 132 129 131 121 97 98 99 93 81 66 66 88 97 83 77 64 61 60 50 40 54 33 18 331 347 5 5 349 354 344 348 336 333 323 313 309 296 292 289 290 285 292 296 302 306 311 303 301 305 321 325 320 316 312 308 308 307 306 301 302
129 131 134 138 142 142 145 143 142 139 137 135 136 134 130 129 129 127 133 132 133 131 131 131 122 123 122 117 110 105 98 87 86 98 100 100 90 81 74 68 63 49 32 18 22 52 82 3 337 358 16 17 344 337 346 344 342 339 331 318 305 297 297 294 291 293 290 287 294 304 312 318 320 314 323 320 314 314 313 311 310 310 310 306 295
135 138 144 142 145 148 148 147 141 140 139 135 129 129 131 134 134 138 138 135 136 133 133 125 127 116 118 108 102 106 101 102 105 103 91 76 79 77 67 59 60 45 338 307 323 24 60 24 8 12 9 354 341 335 333 332 336 327 317 314 306 306 305 302 299 294 291 294 294 292 301 304 307 310 319 321 311 307 311 313 307 306 309 313 309
144 143 146 145 147 148 143 139 136 133 128 127 129 129 130 133 133 132 133 133 137 140 138 127 120 106 103 100 104 101 94 84 80 78 82 96 101 101 104 121 115 107 90 35 66 54 51 39 25 358 353 327 322 315 327 321 330 327 315 315 312 313 308 307 305 298 297 293 288 300 296 302 308 295 300 315 313 308 314 313 310 315 315 308 303
145 146 145 148 148 140 131 128 124 126 129 128 131 136 136 133 131 132 131 127 127 131 131 125 115 102 93 94 90 82 82 86 98 112 113 126 137 132 142 133 128 118 94 67 55 59 45 43 37 12 1 354 351 348 344 343 341 330 315 317 312 312 305 300 297 295 290 286 293 291 297 300 297 310 318 323 327 318 317 318 303 301 303 301 298
145 145 145 143 136 135 131 128 132 132 134 138 142 141 137 136 134 132 130 129 130 131 119 108 108 113 108 93 83 81 82 89 122 143 142 138 134 124 113 102 89 75 70 63 59 54 45 32 17 14 8 360 351 342 338 336 335 328 307 311 311 310 306 304 303 301 303 304 302 312 312 308 312 318 312 308 308 313 312 314 307 310 307 295 291
150 151 149 142 139 135 134 136 135 138 137 132 138 137 136 136 133 130 131 134 131 126 118 111 108 108 106 104 97 93 100 115 115 111 121 124 120 108 97 85 72 65 53 46 29 11 16 20 14 5 2 349 339 333 336 332 337 339 339 337 332 325 319 315 308 305 301 295 299 301 298 302 304 309 309 313 313 312 310 307 306 309 310 314 311
154 154 147 147 149 149 147 145 144 145 146 147 141 133 129 132 135 136 137 131 126 118 109 111 111 110 106 103 104 106 102 106 106 102 101 101 99 97 93 90 82 69 59 48 34 19 5 1 354 354 348 342 339 336 330 323 330 339 335 332 327 323 316 309 311 313 312 309 304 299 302 301 305 312 312 315 313 310 307 304 302 306 304 303 301
151 148 154 155 157 153 151 152 149 152 154 144 135 134 137 136 141 145 141 137 125 115 119 116 116 115 116 115 110 102 93 95 94 87 83 84 86 87 82 82 75 68 58 51 36 21 5 353 341 336 335 340 339 329 316 310 322 334 330 326 321 313 313 311 306 300 299 295 297 300 304 311 306 302 308 307 305 299 304 302 302 300 296 293 294
153 154 156 160 157 154 154 151 152 153 145 136 135 138 144 151 149 141 133 128 120 118 117 118 123 123 122 118 111 101 88 83 84 83 80 77 77 77 74 74 70 62 54 41 33 13 353 341 336 335 334 336 331 318 318 327 332 331 324 314 303 302 304 302 304 300 296 290 291 294 297 295 293 296 299 301 301 301 304 301 305 304 302 298 298
157 160 161 159 156 157 156 155 150 148 141 136 139 145 148 146 145 151 143 138 136 135 136 129 127 125 121 115 107 93 84 86 87 87 83 79 74 72 67 69 65 57 44 40 31 5 342 342 339 325 319 319 311 331 338 337 334 325 314 309 303 297 299 289 278 273 279 283 280 280 288 291 290 297 301 305 302 302 305 303 304 301 294 292 288
160 160 163 165 166 165 159 154 150 146 144 143 148 152 155 158 150 148 128 112 103 109 99 111 123 121 119 114 105 94 79 86 88 91 88 82 78 69 72 70 73 63 35 26 8 346 345 340 331 317 308 302 315 340 342 340 327 318 314 310 308 305 283 290 299 306 303 299 293 297 301 303 306 306 309 310 309 307 302 300 296 293 294 298 296
172 172 169 169 168 167 164 156 152 151 151 152 156 158 156 151 144 144 127 130 129 123 124 113 118 118 117 113 109 104 84 84 94 96 92 87 80 76 75 74 74 64 22 345 335 346 328 338 323 308 299 281 329 343 342 345 326 323 321 323 324 319 306 287 291 300 308 311 311 309 308 311 313 314 315 314 312 313 310 303 302 305 299 300 301
175 173 174 172 168 166 164 158 153 154 158 162 159 155 145 135 144 158 142 142 131 131 126 110 99 104 111 112 115 113 99 80 97 97 96 90 90 89 85 83 64 55 23 331 322 320 302 308 325 291 288 298 344 345 345 346 334 331 333 331 327 326 322 325 323 313 318 313 310 315 316 315 315 311 308 312 315 318 308 302 300 300 297 296 298
177 178 174 168 163 160 157 155 155 156 160 160 156 153 154 149 141 129 127 120 124 127 119 112 106 95 99 108 112 107 104 72 88 91 92 97 93 84 79 75 80 45 8 290 284 228 265 268 325 342 348 345 349 348 347 348 338 341 340 326 320 321 322 331 333 332 334 334 332 333 324 320 315 310 306 317 320 314 294 295 304 302 301 301 300
170 156 150 153 152 152 155 154 156 158 156 147 146 143 133 129 138 133 125 126 128 122 115 115 114 112 108 104 96 98 98 77 83 92 90 87 88 84 88 90 76 48 278 235 243 282 244 234 286 345 356 354 354 353 350 350 350 347 328 316 314 321 332 334 334 332 326 325 321 321 314 312 313 315 316 317 318 318 312 308 305 304 303 302 301
146 146 145 145 149 149 148 155 153 150 148 147 137 132 138 137 135 134 133 130 122 120 120 120 114 111 104 100 98 85 86 79 78 98 87 80 77 80 81 107 147 212 233 240 236 232 243 244 240 348 355 356 356 355 352 352 352 345 307 310 330 330 335 332 329 330 325 321 315 313 316 318 320 321 320 322 322 319 317 316 307 305 303 302 302
141 142 146 146 143 143 143 138 139 140 137 136 135 129 118 123 132 136 136 136 132 128 130 125 119 114 103 93 90 86 65 78 70 83 86 78 73 76 113 228 169 187 231 228 233 245 279 320 324 348 353 355 356 355 356 356 356 337 338 343 338 336 336 328 323 323 318 317 316 320 325 327 330 330 327 323 321 318 319 318 314 302 295 295 302
138 138 137 139 142 142 142 144 143 142 143 143 136 134 135 131 135 139 138 135 135 136 137 137 129 122 104 81 89 74 76 54 96 79 81 81 79 67 122 201 212 184 186 215 224 245 279 335 346 347 352 354 353 356 360 5 12 355 350 345 346 343 339 324 320 315 316 322 326 323 325 327 327 327 323 323 323 324 321 318 309 308 302 303 295
132 134 137 138 137 138 140 138 137 142 144 139 133 136 140 140 140 148 149 146 146 144 148 143 135 137 138 132 112 88 52 80 86 91 88 101 168 179 245 249 194 175 197 214 239 291 351 348 346 353 355 355 357 3 6 12 4 356 353 354 354 347 327 321 316 322 322 320 322 320 321 324 321 320 322 324 326 324 317 316 315 313 308 308 303
137 140 142 143 140 137 132 136 141 143 150 147 144 145 143 150 144 156 151 155 156 154 157 156 154 151 141 150 154 149 104 78 50 91 145 204 224 233 256 260 313 19 199 259 250 321 356 356 2 1 3 1 10 11 16 6 1 360 360 2 356 326 331 326 333 329 326 328 325 318 314 317 317 309 319 324 318 311 312 314 313 309 302 286 285
141 144 143 144 145 144 136 131 133 140 146 152 155 159 158 161 157 157 161 161 162 157 158 157 154 152 156 158 164 166 137 107 142 226 198 196 224 239 250 273 349 6 17 342 2 11 6 13 5 18 13 6 14 359 25 3 2 3 5 2 344 337 335 341 338 337 329 326 322 320 315 312 314 323 323 315 314 320 324 323 321 322 324 320 319
144 148 151 147 144 148 147 148 146 144 143 137 138 152 160 157 156 161 166 164 162 160 158 161 159 163 165 165 168 160 143 157 197 228 209 169 230 215 239 250 352 20 325 322 47 28 19 12 24 25 26 17 26 22 20 7 1 1 3 352 338 334 343 346 341 331 331 326 323 317 314 311 313 313 320 324 321 324 328 325 321 318 320 316 315
156 157 153 151 153 157 154 153 153 153 159 159 157 158 170 172 171 176 178 175 163 170 169 173 177 174 170 164 158 148 167 202 211 201 208 175 224 199 232 202 201 174 292 63 68 28 41 13 28 3 18 25 23 23 6 8 359 2 358 337 327 333 342 343 334 330 329 323 313 311 312 320 323 324 320 321 322 323 326 323 325 321 319 317 315
142 143 148 148 155 158 156 162 163 155 151 139 101 109 165 178 173 141 8 36 198 171 172 179 179 171 160 161 157 163 183 206 218 179 203 202 197 207 233 205 182 277 327 86 68 32 46 32 34 22 23 25 11 16 2 2 357 354 349 335 330 327 333 337 332 338 329 320 318 322 324 323 322 322 322 316 323 323 324 323 323 319 313 308 308
147 158 160 161 159 159 161 161 154 152 152 151 138 95 83 139 147 152 170 185 152 145 154 169 170 154 150 166 161 161 184 183 185 182 193 195 203 169 163 113 74 86 58 81 97 67 26 41 21 27 16 15 9 6 357 355 347 351 346 343 334 327 334 333 327 334 329 324 319 323 326 324 319 324 323 323 318 321 325 329 323 324 321 318 314
159 161 168 178 176 169 162 159 162 155 156 154 152 142 126 116 130 133 144 149 155 151 155 143 149 153 149 161 200 192 181 174 177 181 187 188 170 156 114 88 77 62 80 88 37 74 47 25 11 17 26 13 359 356 346 343 341 338 332 324 314 332 332 327 327 328 321 317 322 322 321 320 321 324 324 324 321 319 321 323 324 322 320 316 313
173 180 180 173 167 172 166 163 160 161 165 165 165 157 151 141 131 150 163 170 160 159 158 153 160 166 171 170 178 190 179 178 176 177 177 180 168 140 120 111 91 79 82 98 85 46 96 41 338 350 16 14 337 331 321 322 327 327 325 325 323 322 325 322 330 325 316 317 322 324 322 323 322 325 322 320 319 317 319 322 328 328 318 311 311
178 175 176 170 171 169 169 172 176 174 172 172 177 173 166 164 156 154 157 159 161 164 164 166 173 176 178 180 178 170 173 176 174 173 179 179 161 142 140 121 108 90 92 69 107 138 92 239 240 316 347 314 297 295 302 318 321 319 316 315 315 314 311 313 322 311 312 319 326 322 322 324 324 322 320 319 321 318 321 320 322 317 312 313 315
190 177 179 177 174 180 184 184 181 186 182 183 181 178 181 175 166 156 151 145 149 171 182 185 188 187 184 181 182 184 181 174 176 179 177 172 158 155 144 116 103 96 111 138 141 187 209 206 261 236 265 283 284 296 307 312 314 307 303 303 300 301 309 318 319 313 312 319 322 319 320 321 325 324 322 321 312 311 314 319 321 317 313 313 315
183 179 178 181 190 190 188 186 185 180 180 186 185 184 179 176 168 169 171 173 175 177 175 182 193 192 186 180 181 179 174 180 178 176 171 168 162 141 118 83 91 11 25 44 186 217 206 240 216 257 252 269 279 292 297 298 299 304 306 306 304 306 316 321 316 315 315 319 320 319 321 323 323 322 323 320 319 319 319 320 320 311 307 311 319
190 191 188 191 196 196 190 189 185 185 189 191 187 182 172 171 178 187 177 170 169 166 169 182 188 199 180 171 181 181 184 185 177 175 171 167 165 151 105 136 138 193 185 250 197 235 206 217 211 249 250 261 266 274 275 283 287 294 296 299 306 313 315 315 311 313 315 315 311 315 319 318 320 321 317 311 310 313 315 318 316 313 311 312 319
197 200 198 199 198 194 186 180 187 187 178 170 169 175 178 184 183 176 177 179 179 178 172 162 149 202 202 156 193 186 188 185 180 173 167 165 159 126 141 163 172 196 208 226 230 228 237 251 238 230 246 239 252 254 263 276 281 284 295 299 301 306 305 304 310 318 315 310 308 309 314 316 320 320 321 318 317 314 313 313 312 308 310 319 322
212 210 210 192 185 185 183 190 181 161 168 172 183 183 185 186 188 184 185 187 181 174 173 183 187 185 183 193 168 181 212 189 174 152 135 130 112 109 145 157 174 181 217 239 237 228 239 246 237 230 242 238 243 253 256 267 271 280 283 293 298 292 304 308 310 306 303 302 304 310 313 315 317 317 317 314 314 316 317 316 313 311 312 318 320
223 220 187 169 182 189 189 179 178 177 183 180 190 187 192 186 186 188 192 188 184 186 186 184 190 193 193 166 173 181 151 173 171 190 196 187 172 164 170 189 202 219 223 223 233 239 244 249 250 247 244 242 247 251 251 263 269 276 281 291 294 297 300 299 301 301 303 300 304 307 309 310 313 314 314 312 311 313 313 315 315 313 315 317 317
206 214 202 182 191 190 187 190 186 188 193 188 196 194 192 194 196 195 187 184 193 192 188 188 197 197 182 167 176 164 176 196 189 192 189 195 197 200 180 199 211 212 219 231 231 234 241 251 246 250 255 256 253 255 256 261 268 273 282 286 290 294 294 292 293 295 296 299 302 305 305 307 310 311 309 309 309 313 315 313 313 314 311 310 311
203 193 196 200 186 186 184 190 200 204 198 200 196 196 206 201 197 190 191 197 197 192 195 200 195 178 176 185 184 180 178 190 190 189 194 196 200 198 209 210 211 221 228 223 229 228 230 242 253 249 255 255 256 258 268 272 278 284 283 283 286 286 290 287 284 286 291 297 300 302 301 304 309 316 316 314 314 312 310 311 310 311 309 309 312
190 193 195 198 185 192 197 207 206 202 199 198 202 206 205 202 197 195 199 199 198 195 195 183 181 184 188 189 194 195 190 192 184 192 202 201 199 209 210 212 214 213 217 219 221 229 238 243 249 251 255 265 265 273 275 274 271 274 276 279 280 284 285 285 285 285 290 296 299 297 296 300 309 311 309 312 311 309 310 312 311 309 309 313 315
202 202 202 192 195 201 206 209 194 199 204 205 212 208 205 200 202 200 201 204 200 196 197 181 168 175 191 197 198 206 196 183 185 195 198 206 209 216 213 216 215 215 214 219 218 213 222 235 250 254 250 252 250 250 255 260 260 267 271 272 275 276 279 281 284 283 291 296 295 295 293 296 305 304 306 309 309 309 307 312 312 308 310 312 314
204 206 205 209 209 209 208 200 206 211 212 216 212 206 202 204 204 202 203 205 204 197 195 184 171 167 187 200 200 204 196 189 194 201 199 210 215 223 224 223 222 220 224 222 228 214 216 227 246 255 259 257 251 247 248 250 244 248 258 266 270 272 273 274 277 282 289 290 294 293 294 298 298 302 304 309 310 311 313 313 313 313 311 312 313
208 210 214 214 214 212 219 213 213 212 210 209 215 212 206 203 208 208 205 204 203 197 182 169 179 185 190 198 201 201 205 199 203 202 212 215 221 225 224 223 219 220 221 225 224 210 213 224 234 245 263 263 256 250 249 249 240 241 239 248 258 266 267 270 271 274 277 281 287 291 294 294 294 299 304 307 314 314 312 310 312 312 312 312 312
205 210 214 220 221 223 220 221 215 212 213 213 214 213 209 207 204 193 192 189 183 172 174 178 185 184 189 184 190 200 206 200 210 212 217 223 223 229 224 223 224 221 222 223 217 209 217 216 224 234 245 254 259 259 255 249 247 244 245 239 249 257 262 266 272 274 272 272 279 283 283 283 288 294 303 311 312 309 303 305 306 304 307 307 305
207 210 216 219 223 225 223 217 215 219 211 218 217 206 201 196 204 203 210 186 174 174 184 189 185 197 192 179 177 209 211 207 213 213 220 221 224 227 229 226 227 231 231 225 217 216 219 224 227 229 238 247 254 260 264 262 258 252 248 248 250 260 265 266 265 262 266 269 271 272 273 280 287 292 302 307 303 305 308 306 307 308 308 305 305
216 218 222 221 225 228 226 215 216 209 213 218 203 199 191 192 200 185 184 173 186 192 191 195 193 189 166 187 170 183 200 201 220 228 225 226 226 226 227 228 230 234 234 232 225 215 217 224 229 232 240 248 253 260 263 267 268 264 263 258 256 255 260 261 264 265 262 263 260 263 270 279 280 287 297 298 298 301 306 306 309 305 305 306 309
220 223 230 227 228 226 221 219 206 196 206 197 198 211 183 189 194 176 169 185 192 196 197 197 196 183 173 194 179 172 182 216 213 227 229 230 226 226 224 229 234 235 232 241 234 222 222 226 229 232 236 245 247 255 265 266 269 270 270 268 264 263 268 273 276 269 270 268 266 267 271 272 280 288 289 288 290 294 294 295 297 299 304 307 308
214 222 228 235 233 232 224 219 197 199 191 192 201 200 188 180 192 191 184 187 196 205 208 201 197 196 184 196 189 184 165 201 220 227 233 232 230 225 227 233 237 238 237 243 245 235 231 229 232 238 241 244 249 252 256 262 265 268 274 272 275 281 282 280 278 277 275 267 268 271 273 278 281 280 274 274 279 288 293 292 296 302 305 309 307
216 217 222 226 227 224 219 217 207 203 193 193 193 197 185 195 190 185 180 185 190 189 188 203 197 194 200 203 204 180 186 212 220 223 225 226 213 221 230 234 239 242 244 246 250 246 240 238 240 240 241 245 249 252 255 258 265 266 270 276 281 282 280 279 276 276 277 279 276 272 273 278 279 276 273 271 276 280 287 296 299 300 303 302 305